Miscellaneous Local Product
Issued by NWS North Platte, NE

Home | Current Version | Previous Version | Text Only | Print | Product List | Glossary On
Versions: 1 2 3 4 5 6 7 8 9 10 11 12 13 14 15 16 17 18 19 20 21 22 23 24 25 26 27 28 29 30 31 32 33 34 35 36 37 38 39 40 41 42 43 44 45 46 47 48 49 50
000
AXUS43 KLBF 222210
MISLBF


WESTERN AND NORTH CENTRAL NEBRASKA HOURLY WEATHER ROUNDUP
NATIONAL WEATHER SERVICE NORTH PLATTE NE
400 PM CST WED NOV 22 2017

NOTE: "FAIR" INDICATES FEW OR NO CLOUDS BELOW 12,000 FEET WITH NO
SIGNIFICANT WEATHER AND/OR OBSTRUCTIONS TO VISIBILITY.

NOTE: STATIONS NOT REPORTING VARIABLES SUCH AS SKY/WEATHER OR
PRESSURE ARE PROVIDED BY RAWS AND APRS NETWORKS AND ARE NOT UNDER
NATIONAL WEATHER SERVICE QUALITY CONTROL.

...OBSERVATIONS IN AND NEAR THE EASTERN PANHANDLE OF NEBRASKA...

CITY           SKY/WX    TMP DP  RH WIND       PRES   REMARKS
PINE RIDGE     SUNNY     71  36  27 W17G25    30.02F
GORDON         FAIR      67  36  31 W8        30.03F
CHADRON        SUNNY     69  38  32 NW9       30.05S
ALLIANCE       SUNNY     69  36  29 NW10      30.07F
SIDNEY         SUNNY     68  36  30 N13       30.13S
CRESCENT LAKE    N/A     68  35  29 NW10        N/A
$$

...OBSERVATIONS IN NORTHERN NEBRASKA AND FAR SOUTHERN SOUTH DAKOTA...

CITY           SKY/WX    TMP DP  RH WIND       PRES   REMARKS
WINNER         FAIR      68  38  33 NW18G26   29.94R
VALENTINE      CLOUDY    68  37  32 NW12      29.99R
THEDFORD       SUNNY     70  38  31 NW10      30.03R
AINSWORTH      SUNNY     68  38  32 NW12      29.98R
O`NEILL        CLEAR     52  32  45 S8        29.99S
ORD            SUNNY     57  30  35 S10       30.02F
BROKEN BOW     SUNNY     61  35  37 SW13      30.02F
VALENTINE NWR    N/A     69  35  29 NW12G20     N/A
HALSEY           N/A     69  35  28 W7G15       N/A
BUTTE            N/A     57  31  37 S7          N/A
CHAMBERS         N/A     54  31  40 W7          N/A
EWING            N/A     48  29  47 S5          N/A
$$

...OBSERVATIONS IN SOUTHWEST NEBRASKA AND FAR NORTHEAST COLORADO...

CITY           SKY/WX    TMP DP  RH WIND       PRES   REMARKS
HOLYOKE        FAIR      72  34  25 N14       30.12R
IMPERIAL       SUNNY     70  36  28 N14       30.08S
OGALLALA       SUNNY     69  38  31 NW9       30.07S
NORTH PLATTE   SUNNY     68  38  33 W8        30.04F
MCCOOK         SUNNY     67  38  34 W5        30.07S
LEXINGTON      SUNNY     61  33  35 SW9       30.06F
STAPLETON        N/A     66  39  37 CALM        N/A
GOTHENBURG       N/A     63  34  34 SW5         N/A
CALLAWAY         N/A     63  38  39 SW7         N/A
$$

...OBSERVATIONS IN CENTRAL LINCOLN COUNTY AREA...

CITY           SKY/WX    TMP DP  RH WIND       PRES   REMARKS
N.P. AIRPORT   SUNNY     68  38  33 W8        30.04F
N.P. DOWNTOWN    N/A     67  42  39 CALM        N/A
N.P. SOUTHEAST   N/A     68  41  36 W3          N/A
N.P. HILLCREST   N/A     67  41  39 W5          N/A
$$

...SOME OBSERVATIONS FROM AROUND THE REGION...

CITY           SKY/WX    TMP DP  RH WIND       PRES   REMARKS
DENVER         PTSUNNY   68  33  27 NW8       30.22R
COPPER MTN     SNOW      34  32  93 MISG      30.59S VSB<1/4
GRAND JUNCTION SUNNY     62  33  33 SE3       30.38F
LARAMIE        CLOUDY    51  38  60 W18       30.33R
CHEYENNE       CLOUDY    58  38  47 NW20G31   30.25R
CASPER         CLOUDY    57  39  51 SW22G28   30.22F
BISMARCK       CLEAR     62  39  42 NW21G30   29.85R
RAPID CITY     SUNNY     68  36  30 NW18      30.00R
PIERRE         PTCLDY    59  34  39 W3        29.90R
SIOUX FALLS    MOCLDY    39  19  44 S18       30.01F WCI  30
OMAHA          MOCLDY    41  16  36 S16       30.16S
GRAND ISLAND   SUNNY     51  25  36 SW18      30.08F
SCOTTSBLUFF    CLOUDY    67  38  34 W17       30.11R
KANSAS CITY    CLOUDY    40  15  36 S9        30.23F WCI  34
HILL CITY      SUNNY     64  34  32 SW9       30.10F
WICHITA        MOSUNNY   47  20  34 S12       30.22F
DODGE CITY     SUNNY     61  30  31 S16       30.16F
OKLAHOMA CITY  MOSUNNY   49  14  24 CALM      30.28F
DALLAS         MOSUNNY   56  18  22 N13       30.28S
AMARILLO       SUNNY     60  29  30 SW13      30.24S
$$




USA.gov is the U.S. government's official web portal to all federal, state and local government web resources and services.